Lapse_Rate
4.5 4.2 3.7 3.8 6.4 6.5 6.5 6.5 6.5 6.5 6.5 5.1 5.1 5.7 6.4 5.7 6.5 6.5 4.9 4.5 3.4 3.3 4.8 3.9 4.6 4.2 4.7 4.7 4.5 4.8 5.8 6.7 6.8 6.8 7.0 7.1 7.5 7.2 6.9 6.6 6.5 6.3 6.3 6.4 6.3 6.4 6.4 6.3 6.3
3.8 4.4 3.1 3.3 6.5 6.5 6.5 6.5 6.5 6.5 5.6 4.8 4.8 5.5 5.9 6.5 5.5 5.3 4.9 4.6 4.2 3.8 4.5 4.3 5.1 4.6 4.7 4.5 4.6 5.0 6.1 6.5 7.1 7.5 7.6 7.7 7.4 7.1 6.9 6.8 6.5 6.4 6.2 6.0 5.8 5.4 5.4 5.5 5.9
4.0 4.9 4.2 6.5 6.5 6.5 6.5 6.5 6.5 6.2 4.9 5.6 5.4 5.4 5.7 6.1 4.9 4.6 4.9 5.2 4.9 4.0 4.7 4.6 5.0 4.5 4.8 4.8 4.9 5.1 5.9 6.4 6.8 7.7 7.6 7.7 7.5 7.2 6.9 6.7 6.5 6.2 5.9 5.8 5.6 5.4 5.3 5.4 5.5
4.0 3.6 3.4 6.5 6.5 6.5 6.5 6.5 6.3 6.4 5.7 5.7 5.9 6.4 5.8 4.0 4.6 4.2 5.1 5.3 4.6 4.4 4.3 4.2 4.6 4.5 5.2 4.8 4.5 4.9 5.3 6.0 6.6 7.1 7.5 7.8 7.5 7.2 6.7 6.2 5.8 5.5 5.6 5.8 5.9 5.7 5.7 5.7 5.8
4.2 3.6 6.5 6.5 6.5 6.5 6.5 5.8 5.5 6.5 6.0 5.6 5.9 6.3 5.9 6.1 3.5 3.9 5.5 6.0 5.3 5.0 4.3 4.9 5.4 6.2 5.0 4.8 3.6 3.9 4.9 5.7 6.4 6.8 7.1 6.9 7.0 7.4 6.6 5.9 5.5 5.3 5.4 5.7 6.1 5.9 5.9 5.7 5.8
4.9 3.6 6.5 6.5 6.5 6.5 6.3 4.1 5.9 6.0 5.9 5.4 6.0 6.0 5.6 5.0 3.6 4.6 5.6 5.3 5.4 4.6 5.1 5.1 5.8 6.3 5.5 5.2 3.6 3.4 4.2 5.4 6.3 6.3 6.2 6.3 6.8 7.4 6.8 6.0 5.4 5.2 5.3 5.3 5.5 6.0 5.9 5.7 5.4
6.0 6.5 6.5 6.5 6.5 6.5 6.5 4.4 5.8 5.4 5.5 5.7 5.7 6.5 5.5 5.8 5.0 5.2 5.4 4.2 4.9 4.7 4.8 5.2 5.3 5.9 6.0 5.7 4.8 3.7 4.1 4.4 5.8 6.1 5.9 5.8 6.1 6.9 6.5 6.2 5.5 5.0 4.9 5.1 5.3 5.4 5.4 5.4 5.3
4.1 6.4 6.5 6.5 6.5 6.5 5.9 5.8 5.6 5.0 6.0 5.3 6.6 6.4 6.0 6.0 5.8 5.6 5.5 4.4 4.5 4.5 4.5 3.7 4.3 5.3 5.5 5.5 5.5 4.4 4.3 4.2 4.3 5.1 5.2 5.2 5.6 6.4 6.2 5.9 5.5 5.5 4.9 4.8 5.1 5.2 5.3 5.3 5.3
6.4 6.5 6.5 6.5 6.5 6.5 4.9 6.3 6.2 5.9 5.5 5.2 5.6 6.2 4.7 5.4 5.7 5.5 5.0 4.8 4.6 4.7 4.5 4.3 4.0 4.4 4.5 4.8 5.4 5.3 4.8 4.2 4.0 4.2 5.0 5.2 5.0 5.0 5.2 5.2 5.4 5.2 4.7 4.8 5.3 5.5 5.4 5.3 5.2
5.8 6.5 6.5 6.5 6.4 6.5 6.2 6.0 5.1 6.1 5.7 5.6 5.3 4.8 5.3 4.8 5.1 5.4 5.0 5.3 4.9 4.4 4.8 4.9 4.4 4.4 4.8 5.6 4.8 4.5 4.3 3.7 3.1 3.3 3.9 4.9 5.1 4.7 4.7 4.8 4.9 4.9 4.9 5.1 5.7 5.8 6.1 5.6 4.8
6.0 6.5 6.5 6.3 5.6 5.9 6.3 5.9 5.6 6.1 6.5 5.0 5.2 4.8 4.2 3.8 3.8 4.4 4.9 5.0 5.0 5.0 5.1 5.3 5.1 5.1 4.7 5.2 4.8 3.9 3.7 3.3 3.2 3.2 3.5 4.2 4.9 4.8 4.2 3.9 4.3 4.3 4.8 4.8 4.9 5.0 5.2 4.6 3.9
6.5 6.0 6.2 6.2 6.0 6.1 6.4 5.9 5.9 6.0 5.8 5.0 4.6 5.4 5.7 6.4 3.5 3.7 4.4 4.5 4.4 5.0 5.8 5.4 5.8 5.0 4.8 4.5 5.1 4.8 4.4 4.0 3.3 3.8 4.2 4.2 3.3 3.9 3.6 3.6 3.9 4.1 4.6 4.1 4.2 3.9 4.1 3.4 3.5
6.5 6.5 6.1 5.9 5.5 5.8 6.0 6.1 6.2 5.4 4.8 4.4 4.2 4.5 4.5 5.8 5.4 5.0 4.2 4.2 3.7 4.7 5.3 5.4 5.7 5.6 4.7 4.4 5.2 6.2 6.3 5.1 4.3 4.1 5.2 4.9 4.2 2.9 4.1 5.1 6.0 5.1 4.9 4.1 3.4 3.4 2.5 1.7 2.3
6.2 6.2 6.3 6.0 5.8 5.8 6.4 6.2 5.8 6.0 5.5 4.3 4.6 4.2 3.7 4.4 5.1 4.9 4.1 4.3 3.8 4.2 4.9 5.4 4.8 5.1 4.5 4.7 4.6 6.1 6.5 6.1 5.2 5.4 5.9 6.2 4.9 3.7 3.8 4.5 3.8 3.7 4.4 4.0 3.4 2.0 0.7 -0.2 0.8
6.6 6.5 6.5 6.2 6.0 6.4 5.9 6.5 6.5 4.8 5.0 4.9 4.3 3.8 4.1 4.4 4.3 4.6 4.4 3.8 3.9 2.9 4.0 5.1 5.0 4.8 4.0 4.4 4.7 6.0 6.6 6.6 6.4 7.0 6.8 6.4 5.1 4.6 3.6 2.9 2.4 2.8 3.8 3.5 2.7 1.0 0.5 -0.7 0.4
6.5 6.5 6.5 6.5 6.4 6.1 6.0 6.5 6.5 4.9 4.8 5.1 5.4 5.5 4.5 5.0 4.6 4.4 4.1 4.1 3.6 3.8 2.9 4.6 5.9 4.9 3.7 3.4 4.7 6.3 7.0 5.8 5.8 7.3 7.4 5.5 5.2 4.6 3.6 2.3 1.9 3.1 3.0 2.3 0.2 -0.3 -0.7 -1.1 -1.3
6.5 6.5 6.5 6.5 6.3 6.5 6.5 6.5 6.5 5.7 5.2 4.9 4.6 4.5 4.7 5.1 4.9 3.7 4.0 4.5 4.9 3.1 3.6 3.7 4.7 4.3 4.6 3.4 3.7 4.4 6.5 4.2 5.9 6.6 5.9 5.1 4.9 4.3 3.5 2.2 1.9 3.0 1.7 0.6 0.7 -0.9 -0.7 -1.3 -1.5
6.5 6.5 6.5 6.5 6.5 6.5 6.5 6.5 6.5 4.6 4.9 4.3 3.8 3.2 2.8 3.4 3.6 4.5 4.3 3.6 3.9 3.6 3.2 2.8 4.4 4.2 4.0 3.4 4.1 3.0 5.2 4.6 5.0 5.2 5.7 4.1 3.8 3.4 3.2 2.2 1.7 1.9 0.4 -0.2 -0.3 -0.5 -1.7 -1.5 -1.8
6.5 6.5 6.5 6.5 6.5 6.5 6.5 6.5 6.5 5.9 4.7 5.5 5.4 3.1 3.5 3.4 4.1 3.7 3.9 3.7 2.7 2.9 2.9 2.4 3.1 3.9 3.4 2.9 4.2 4.2 5.2 4.7 4.0 4.0 3.9 2.7 3.3 3.5 2.6 1.7 1.2 0.9 0.3 -0.5 -0.2 -0.3 -0.6 -1.5 -2.3
6.5 6.5 6.5 6.5 6.5 6.5 6.5 6.5 6.5 6.5 6.4 6.1 6.1 5.3 3.5 3.1 3.4 3.8 3.8 3.4 3.6 3.5 3.1 2.3 2.6 2.9 3.4 3.4 3.3 3.7 2.3 3.1 3.7 2.4 2.9 3.0 3.0 2.5 2.4 1.5 0.5 0.1 -0.7 -1.0 -0.7 -0.2 -0.5 -1.1 -2.2
6.5 6.5 6.5 6.5 6.5 6.5 6.5 6.5 6.5 6.5 6.2 6.2 6.3 6.2 5.1 3.5 3.1 3.0 2.9 3.5 2.8 2.8 2.6 3.0 2.2 2.1 3.0 3.2 2.3 -0.4 -0.0 -0.0 1.5 1.8 1.5 1.8 2.7 2.7 2.2 1.6 1.4 -0.4 -0.7 -1.6 -1.1 -1.1 -0.3 -0.6 -1.1
6.5 6.5 6.5 6.5 6.5 6.5 6.5 6.5 6.5 6.5 6.5 6.5 4.9 4.0 4.3 4.3 4.4 4.2 3.8 3.0 2.9 2.1 2.7 2.5 2.8 2.4 2.4 2.1 2.5 1.9 2.4 2.3 0.2 0.2 -0.0 0.7 2.5 1.8 2.1 2.1 2.1 0.0 -1.6 -1.5 -1.4 -1.1 -1.3 -1.1 -0.4
6.5 6.5 6.5 6.5 6.5 6.5 6.5 6.5 6.5 6.5 6.5 6.5 6.5 4.6 3.4 1.7 2.3 2.6 2.5 2.9 3.7 2.7 2.9 2.7 2.4 2.5 2.2 2.8 2.4 1.9 1.7 -1.4 -2.1 -1.7 -0.1 1.7 2.8 3.0 3.0 2.6 1.4 -0.2 -1.3 -0.8 -1.3 -1.5 -1.2 -0.9 -0.8
6.5 6.5 6.5 6.5 6.5 6.5 6.5 6.5 6.5 6.5 6.5 6.5 6.3 5.4 4.2 4.1 3.5 4.2 3.7 2.7 2.2 1.8 1.5 1.7 2.2 2.1 2.1 2.1 1.9 2.3 0.3 -2.3 -2.1 -1.2 0.6 2.1 2.5 2.7 3.2 2.3 0.8 1.1 0.1 0.1 -1.9 -1.6 -1.1 -0.9 -0.6
6.5 6.5 6.5 6.5 6.5 6.5 6.5 6.5 6.5 6.5 6.5 6.5 6.5 4.5 4.0 3.7 3.0 3.0 5.3 3.8 4.1 3.8 2.9 1.5 2.1 1.9 2.1 1.5 1.0 1.0 -0.0 -1.5 -1.6 -0.8 0.9 1.8 2.6 2.7 2.7 2.2 0.9 0.7 -0.7 -0.4 -1.3 -1.5 -1.0 -0.5 -0.2
6.5 6.5 6.5 6.5 6.5 6.5 6.5 6.5 6.5 6.5 5.8 5.0 4.4 3.5 3.4 2.8 2.7 3.1 4.0 3.0 3.6 4.2 3.0 2.5 2.4 2.3 2.3 2.5 1.2 1.5 0.4 -0.5 -0.2 1.2 2.4 2.7 3.2 2.8 2.2 1.8 1.0 1.1 0.4 -0.1 -0.6 -1.3 -1.0 -0.5 -0.3
6.5 6.5 6.5 6.5 6.5 6.5 6.5 6.5 6.5 6.5 6.5 6.4 5.5 4.7 3.6 1.8 3.0 3.9 5.3 4.2 3.8 3.6 2.6 2.4 2.4 2.3 2.6 2.7 2.6 2.0 0.6 -0.3 1.2 2.2 3.0 3.1 3.0 2.7 2.2 1.8 1.6 1.3 1.4 0.2 -0.7 -0.7 0.1 0.1 0.4
6.5 6.5 6.5 6.5 6.5 6.5 6.5 6.5 6.5 6.5 6.5 6.5 6.5 5.9 4.8 4.5 5.1 4.5 3.9 3.9 3.9 3.9 2.5 2.1 2.9 3.1 2.5 2.3 2.3 1.3 -0.4 -0.4 1.2 1.9 3.0 3.0 2.8 3.6 2.5 2.0 1.9 1.4 1.4 0.2 -0.1 -0.1 0.6 1.0 1.0
6.5 6.5 6.5 6.5 6.5 6.5 6.5 6.5 6.5 6.5 6.5 6.5 6.5 4.7 4.6 4.8 4.5 3.6 3.1 2.8 2.9 2.5 2.1 2.2 3.0 3.4 2.3 2.2 0.8 1.3 1.3 1.0 2.1 3.1 3.2 2.8 3.5 2.9 2.7 2.6 2.4 2.1 0.4 0.8 0.6 1.1 1.4 2.0 2.4
6.5 6.5 6.5 6.5 6.5 6.5 6.5 6.5 6.5 6.5 6.5 6.2 5.7 5.0 4.6 4.2 5.0 3.7 3.5 3.0 2.3 2.4 2.2 3.7 2.7 2.1 2.2 1.9 1.8 1.7 1.9 2.7 3.4 3.2 3.4 3.6 3.0 3.7 3.2 3.1 2.6 2.0 1.0 1.1 0.8 1.7 2.1 2.5 3.0
Wind_Speed
10 15 4 3 3 4 3 7 4 4 4 1 2 4 3 3 2 3 1 12 18 14 17 21 21 22 20 17 16 15 15 16 15 17 16 18 17 15 14 14 13 14 13 13 12 12 11 11 11
4 6 4 1 4 1 5 7 11 0 4 3 5 3 4 2 3 6 7 15 19 17 18 19 22 22 20 18 17 16 18 17 14 15 16 16 17 16 15 14 14 14 13 13 13 12 11 10 9
3 2 2 4 4 6 5 5 6 2 5 4 4 1 1 3 3 9 7 18 19 15 18 20 23 22 20 19 18 18 16 16 15 14 14 15 17 16 16 15 14 13 13 11 10 10 9 8 8
0 3 3 2 7 7 10 5 3 3 4 5 3 5 3 6 10 9 11 20 18 15 20 24 25 24 21 19 19 17 17 17 16 15 13 14 16 15 15 14 13 12 10 9 7 8 7 7 6
0 2 2 4 8 6 8 6 8 3 4 2 0 3 3 4 7 10 12 17 17 15 21 23 26 26 24 21 20 18 17 18 17 15 15 13 12 13 15 14 13 11 9 8 9 9 7 7 7
1 3 1 8 6 5 8 11 6 5 2 2 2 1 1 6 7 8 9 11 15 16 19 21 23 24 24 22 21 20 19 18 16 15 14 11 9 13 16 14 13 10 8 7 8 7 8 7 6
4 3 6 4 5 6 8 9 5 8 6 3 2 2 1 3 6 7 8 13 15 15 13 16 18 21 22 22 21 21 19 17 15 14 13 9 6 15 16 14 12 11 9 9 8 8 7 6 5
4 3 4 5 8 8 8 3 5 6 5 2 3 3 4 4 7 8 5 12 14 13 13 10 13 15 16 18 20 20 19 17 16 14 13 11 9 16 16 13 12 10 10 8 7 7 6 5 3
1 2 5 8 8 7 10 7 4 2 4 3 3 3 7 9 7 6 4 7 12 11 12 11 11 14 14 14 16 17 19 18 17 17 13 11 10 15 14 14 12 11 9 8 7 6 4 2 0
5 5 7 4 8 7 5 3 4 1 5 2 2 6 2 8 7 8 6 5 9 12 12 13 12 12 15 15 15 13 14 15 15 16 15 11 10 14 14 14 12 11 9 8 6 5 5 6 5
4 5 4 9 10 4 4 5 5 3 2 5 5 3 7 6 8 10 8 8 9 10 10 13 13 15 14 11 14 11 11 13 14 15 16 13 11 14 13 12 11 10 8 5 4 3 5 6 6
5 5 13 11 11 5 4 5 5 2 5 7 6 3 6 2 7 10 9 9 8 9 14 15 16 14 12 14 12 13 9 11 10 13 15 11 8 10 9 8 10 9 7 6 6 5 6 7 7
6 6 10 9 10 5 5 4 5 6 9 9 10 8 6 5 6 6 7 7 9 10 11 10 16 16 12 11 11 11 9 11 13 14 16 18 9 4 9 9 9 10 10 8 6 5 5 6 6
4 5 3 5 7 6 7 5 4 2 6 9 8 13 9 6 8 7 7 7 7 12 12 12 13 14 13 11 11 9 12 15 13 13 16 19 15 8 7 6 7 9 12 9 7 4 3 4 6
1 2 6 6 6 6 6 8 7 10 9 10 12 10 11 9 9 10 10 8 8 6 13 14 12 14 13 13 11 8 11 14 10 12 19 18 15 14 11 5 4 9 11 10 8 7 7 5 4
3 3 2 7 11 8 9 9 9 11 8 13 18 16 13 15 11 10 10 10 8 7 10 15 13 14 14 10 8 7 9 9 10 14 15 16 17 18 11 5 4 11 11 8 4 3 4 3 3
1 3 6 7 7 6 10 4 13 8 11 9 14 15 14 13 13 11 11 12 13 9 9 14 16 17 15 12 8 7 7 4 10 13 13 16 17 16 14 7 9 14 9 5 3 3 2 2 3
6 4 4 5 3 1 4 8 8 9 7 9 9 9 9 9 12 15 12 11 11 9 9 9 14 17 16 11 9 4 5 5 8 8 13 17 16 16 15 10 10 12 5 5 3 3 4 2 2
3 3 4 4 6 4 6 8 10 12 9 14 14 10 11 11 9 7 8 7 8 8 7 8 10 16 12 8 10 8 8 6 4 4 13 15 16 17 14 8 8 8 5 6 4 3 4 5 4
6 6 5 7 4 6 11 18 16 17 18 17 19 14 11 8 9 10 8 7 7 9 8 7 11 15 15 13 11 8 5 3 4 5 8 13 16 15 13 9 7 6 6 6 5 3 2 2 4
2 3 4 5 5 4 7 10 8 7 12 16 17 18 12 11 10 10 10 10 8 9 9 8 9 13 15 15 8 5 6 4 3 4 4 5 14 16 14 12 8 6 6 5 5 4 5 3 3
2 3 5 5 4 3 6 6 6 7 7 6 10 8 12 15 13 12 10 9 9 9 8 8 8 9 13 16 14 18 13 10 4 5 5 7 13 11 15 13 12 6 4 6 5 4 3 4 3
3 5 6 4 3 4 3 3 7 5 7 8 5 7 6 10 10 10 11 11 12 9 9 8 8 10 9 16 17 13 12 4 4 7 9 10 7 12 15 15 12 6 4 5 7 6 5 3 3
4 4 5 4 3 2 9 7 4 3 5 2 4 3 5 5 5 5 6 7 6 6 6 8 8 7 15 14 16 17 16 13 10 9 9 10 7 7 10 13 10 10 6 5 6 5 7 5 4
5 5 3 3 2 6 2 4 9 9 12 8 11 9 7 6 4 5 3 1 1 3 5 5 8 7 14 16 16 15 16 16 15 14 11 13 9 8 10 10 10 6 7 6 7 6 6 5 4
4 5 4 6 3 4 3 7 6 10 11 6 7 8 7 9 7 4 7 5 1 2 4 7 7 7 14 15 16 15 16 10 10 12 11 11 10 10 12 10 8 9 11 7 7 4 4 5 4
3 4 4 1 2 3 5 7 8 9 6 5 7 6 9 8 6 4 1 1 3 5 6 6 7 8 15 15 14 14 14 15 13 12 12 10 10 9 12 11 10 8 8 7 6 4 5 4 4
5 3 3 2 2 5 6 5 9 6 5 7 6 3 3 4 2 2 4 3 4 6 5 7 9 13 16 14 11 13 13 13 14 12 13 12 12 13 12 12 11 9 6 6 6 4 4 5 2
3 1 3 2 4 3 4 5 6 7 3 6 6 7 7 6 6 5 3 5 5 6 7 8 10 12 12 12 13 14 13 15 15 14 13 12 12 13 12 11 10 9 7 6 6 5 5 4 3
4 6 5 4 4 4 2 9 13 14 4 6 10 9 4 6 8 7 4 5 6 8 8 13 10 7 10 12 14 15 14 15 14 13 13 14 13 12 12 11 10 8 7 6 6 5 4 3 2
Wind_Direction
310 308 319 31 50 70 242 260 234 289 52 236 322 79 202 202 199 204 82 130 131 139 148 140 138 131 128 124 117 118 119 117 113 121 125 123 119 114 109 103 103 105 102 100 101 95 89 85 83
321 317 34 86 111 187 267 245 276 222 179 59 23 5 17 90 82 130 106 137 139 140 147 143 139 133 132 129 125 126 128 123 123 124 124 126 121 118 114 111 111 112 109 104 97 95 93 90 88
308 212 82 152 169 197 233 212 2 163 88 92 16 154 164 114 119 155 147 143 138 141 149 149 143 138 138 137 132 134 132 125 125 124 131 136 131 124 119 117 116 113 109 101 95 91 90 90 90
193 8 350 153 226 246 230 283 322 111 59 84 132 291 45 309 152 167 142 141 142 150 151 154 149 145 146 145 140 141 142 134 132 130 131 138 141 134 129 126 123 117 110 101 94 108 99 99 91
349 81 211 211 239 259 259 219 274 144 130 168 10 279 91 26 110 135 133 144 151 149 150 157 159 151 153 155 149 146 148 144 138 136 138 136 148 155 146 137 132 126 114 101 93 106 111 111 98
273 133 137 230 247 247 262 259 189 184 174 272 99 292 211 147 117 158 143 136 139 147 155 161 161 156 157 159 155 151 152 149 146 141 138 140 151 170 153 146 139 130 118 109 106 113 111 101 90
159 119 209 221 250 265 247 279 175 184 173 251 201 220 9 84 164 161 149 126 138 145 152 160 163 162 161 161 162 157 158 155 153 146 144 134 137 167 156 151 144 132 127 121 115 116 117 112 110
141 135 217 219 244 267 273 254 256 164 196 136 113 221 168 209 159 154 170 132 138 149 156 157 160 160 159 163 167 162 158 158 154 147 147 140 129 149 151 148 143 140 136 131 126 126 124 119 107
54 178 212 218 227 248 304 359 311 172 95 79 91 352 178 167 130 111 123 130 146 158 163 161 159 155 155 155 166 162 157 158 156 153 159 156 144 136 139 145 146 145 145 141 142 133 123 137 224
169 198 229 230 235 262 269 39 343 334 150 294 355 79 233 140 140 147 161 176 152 166 170 168 166 162 160 161 158 163 160 158 158 162 170 183 168 155 151 153 156 154 159 160 156 137 107 97 73
200 193 228 269 269 300 290 319 332 43 247 185 197 215 219 184 169 171 184 184 196 169 177 176 172 170 165 160 157 160 165 162 172 178 186 182 190 175 158 158 161 162 170 161 150 120 80 70 63
236 226 236 263 271 275 265 297 322 241 233 301 277 215 161 257 248 183 196 203 194 192 175 179 179 171 172 161 162 166 169 177 180 192 196 163 159 155 157 165 169 168 183 134 113 93 72 60 47
215 240 246 249 269 278 234 248 252 278 296 297 314 315 302 246 240 240 242 229 194 195 191 178 167 170 168 163 168 174 177 183 190 183 189 168 169 168 165 179 156 138 123 101 80 68 54 46 33
247 219 267 293 309 309 277 241 220 292 274 298 293 286 276 208 254 272 247 237 234 195 187 183 159 167 161 169 179 169 172 185 186 178 175 170 174 151 142 135 134 121 115 107 94 70 58 48 38
12 34 338 296 271 258 344 283 233 231 240 260 269 267 281 265 218 232 257 253 222 211 180 185 175 164 165 177 179 166 170 179 192 179 172 174 159 151 142 129 121 118 117 110 94 72 60 45 20
48 44 308 251 232 235 172 259 247 242 228 239 248 249 251 261 261 231 226 253 252 217 185 185 184 174 162 163 178 168 178 176 186 174 173 160 155 152 139 126 125 129 119 109 88 72 57 44 25
275 227 216 302 231 181 180 218 253 239 248 249 243 240 238 246 249 244 236 232 246 220 205 193 183 181 180 162 166 178 176 174 177 166 154 153 150 154 137 134 136 131 117 110 107 67 103 36 350
224 224 246 240 295 198 248 257 267 283 280 257 256 260 234 232 239 237 235 226 231 237 210 195 186 182 181 176 170 142 150 170 168 163 155 150 149 142 130 132 132 132 121 112 103 106 59 60 337
300 242 260 266 276 274 235 253 262 271 269 272 268 244 252 250 254 239 239 246 256 243 246 198 189 180 165 167 178 171 180 167 163 156 147 141 145 145 139 139 133 138 129 136 139 113 86 24 358
279 254 275 296 323 23 318 290 275 260 256 244 251 248 250 257 254 262 270 258 244 243 228 224 196 177 177 174 182 182 149 138 148 124 134 150 149 142 140 143 140 143 125 115 111 123 116 63 17
282 272 275 257 334 351 340 287 246 279 240 248 246 241 233 226 236 242 242 247 247 249 235 213 202 182 176 175 147 92 92 83 98 134 134 137 147 147 144 139 137 140 129 129 128 124 125 134 27
268 25 62 42 47 248 73 289 282 265 271 249 238 239 238 238 239 241 238 237 239 244 252 217 193 188 180 167 164 162 174 172 186 165 143 138 148 141 138 135 139 139 132 130 138 128 127 123 124
220 85 61 33 30 13 297 233 283 260 249 242 221 201 239 234 227 233 232 224 233 221 218 232 224 189 168 173 167 168 167 131 131 135 142 138 141 142 141 139 136 139 128 139 127 123 110 103 118
99 68 28 42 75 320 224 180 283 238 218 292 212 316 286 290 286 262 258 264 279 274 245 235 215 218 171 174 170 171 158 145 145 155 157 151 147 144 143 142 136 144 134 149 129 123 115 113 109
88 75 356 346 262 235 19 210 246 277 285 274 271 249 257 276 261 271 264 126 52 26 328 254 238 192 179 169 169 161 158 154 160 165 167 153 157 160 155 152 142 144 127 141 126 125 124 128 126
163 151 173 234 223 278 278 233 251 229 253 267 278 250 267 259 248 240 209 185 203 346 342 307 238 208 183 177 171 162 151 156 160 168 168 161 165 165 150 144 139 136 131 135 133 124 133 131 131
199 202 200 358 291 36 245 298 311 284 327 347 1 328 305 282 266 301 276 328 326 335 318 297 265 210 183 183 170 160 147 154 158 162 164 168 155 156 144 137 134 133 131 149 141 138 135 132 140
163 170 70 7 340 288 273 254 241 320 350 2 25 56 358 9 7 329 299 318 323 324 303 290 282 209 180 175 156 145 152 150 147 151 158 165 153 153 145 139 139 131 144 150 137 132 141 135 131
150 251 89 127 175 217 295 258 221 207 238 305 299 309 292 260 247 237 237 252 268 287 283 267 270 202 169 154 133 139 149 146 150 158 158 155 147 144 141 136 135 144 142 147 129 138 146 147 136
160 190 162 148 252 237 216 276 269 267 295 324 313 306 324 322 326 291 249 287 315 294 285 287 232 160 154 140 136 142 140 144 152 157 152 150 142 142 139 142 135 138 135 146 139 131 124 144 158